Sigfox identifier Datetime Temperature Humidity SNR
003C5573 2019-02-20 14:02:55 20.8 23 24.6
003C5573 2019-02-20 13:32:41 20.8 24 24.6
003C5573 2019-02-20 13:02:23 20.8 25 24
003C5573 2019-02-20 12:32:06 20.8 25 23.2
003C5573 2019-02-20 11:31:32 20.7 26 22.3
003C5573 2019-02-20 11:01:16 20.7 27 21.3
003C5573 2019-02-20 10:31:00 20.7 27 21.3
003C5573 2019-02-20 10:00:44 20.7 27 19.8
003C5573 2019-02-20 09:30:29 20.7 27 19.9
003C5573 2019-02-20 09:00:13 20.6 27 17.7
003C5573 2019-02-20 08:29:57 20.6 27 17.7
003C5573 2019-02-20 07:59:42 20.7 27 17.7
003C5573 2019-02-20 07:29:26 20.7 27 17.5
003C5573 2019-02-20 06:59:09 20.7 27 17.2
003C5573 2019-02-20 06:28:54 20.7 27 17
003C5573 2019-02-20 05:58:37 20.7 27 17.1
003C5573 2019-02-20 05:28:20 20.7 27 17.1
003C5573 2019-02-20 04:58:04 20.7 27 17.1
003C5573 2019-02-20 04:27:48 20.7 27 16.8
003C5573 2019-02-20 03:57:31 20.7 27 16.4
003C5573 2019-02-20 03:27:16 20.8 27 15.6
003C5573 2019-02-20 02:57:01 20.8 27 15.6
003C5573 2019-02-20 02:26:45 20.7 27 15.6
003C5573 2019-02-20 01:56:28 20.8 27 18.7
003C5573 2019-02-20 01:26:13 20.8 27 18.5
003C5573 2019-02-20 00:55:56 20.8 27 18.6
003C5573 2019-02-20 00:25:39 20.8 27 18.6
003C5573 2019-02-19 23:55:23 20.8 27 18.6
003C5573 2019-02-19 23:25:11 20.8 27 18.6
003C5573 2019-02-19 22:54:52 20.8 27 18.6
003C5573 2019-02-19 22:24:37 20.9 27 18.4
003C5573 2019-02-19 21:54:25 21.1 26 18.4
003C5573 2019-02-19 21:53:13 20.9 27 20.3
003C5573 2019-02-19 21:22:55 20.9 27 20.3
003C5573 2019-02-19 20:52:42 20.9 27 20.2
003C5573 2019-02-19 20:22:25 20.9 27 20.1
003C5573 2019-02-19 19:52:11 20.9 27 20.1
003C5573 2019-02-19 19:21:56 20.9 27 20.2
003C5573 2019-02-19 18:51:39 20.9 27 20.2
003C5573 2019-02-19 18:21:22 21 27 20.2
003C5573 2019-02-19 17:51:07 21 27 20.2
003C5573 2019-02-19 17:20:53 21 27 20.4
003C5573 2019-02-19 16:50:39 21 27 20.5
003C5573 2019-02-19 16:20:25 21 27 20.6
003C5573 2019-02-19 15:50:10 21 27 20.6
003C5573 2019-02-19 15:19:58 21 27 20.8
003C5573 2019-02-19 14:49:42 21 27 20.8
003C5573 2019-02-19 14:19:27 21 27 20.8
003C5573 2019-02-19 13:49:12 21 27 19
003C5573 2019-02-19 13:18:59 20.9 26 19.1
003C5573 2019-02-19 12:48:47 20.9 26 19.1
003C5573 2019-02-19 12:18:32 20.9 26 19.2
003C5573 2019-02-19 11:48:17 20.9 26 19.3
003C5573 2019-02-19 11:18:03 20.9 26 19.3
003C5573 2019-02-19 10:47:51 20.9 26 19.3
003C5573 2019-02-19 10:17:40 20.8 26 19.6
003C5573 2019-02-19 09:47:25 20.8 25 19.6
003C5573 2019-02-19 09:17:11 20.7 25 17.4
003C5573 2019-02-19 08:46:57 20.7 25 18
003C5573 2019-02-19 08:16:41 20.7 25 18.4
003C5573 2019-02-19 07:46:28 20.7 25 18.5
003C5573 2019-02-19 07:16:15 20.7 25 18.5
003C5573 2019-02-19 06:46:03 20.7 25 18.7
003C5573 2019-02-19 06:15:48 20.7 24 18.9
003C5573 2019-02-19 05:45:35 20.7 24 19
003C5573 2019-02-19 05:15:23 20.7 24 19.1
003C5573 2019-02-19 04:45:10 20.7 24 18.7
003C5573 2019-02-19 04:14:58 20.7 24 18.7
003C5573 2019-02-19 03:44:46 20.7 24 18.8
003C5573 2019-02-19 03:14:34 20.8 24 18.7
003C5573 2019-02-19 02:44:21 20.7 24 20.4
003C5573 2019-02-19 02:14:09 20.7 24 20.4
003C5573 2019-02-19 01:43:56 20.7 23 20.4
003C5573 2019-02-19 01:13:43 20.7 23 20.5
003C5573 2019-02-19 00:43:28 20.7 23 20.5
003C5573 2019-02-19 00:13:13 20.7 23 20.6
003C5573 2019-02-18 23:42:58 20.7 23 20.7
003C5573 2019-02-18 23:12:44 20.7 23 20.8
003C5573 2019-02-18 22:42:28 20.8 23 21
003C5573 2019-02-18 22:12:12 20.7 23 21.1
003C5573 2019-02-18 21:41:57 20.8 23 21.1
003C5573 2019-02-18 21:11:46 21 22 21.2
003C5573 2019-02-18 21:10:35 20.7 22 21.2
003C5573 2019-02-18 20:40:19 20.8 22 21.2
003C5573 2019-02-18 20:10:04 20.8 22 21.3
003C5573 2019-02-18 19:39:51 20.8 22 21.3
003C5573 2019-02-18 19:09:37 20.8 22 21.6
003C5573 2019-02-18 18:39:23 20.8 22 21.7
003C5573 2019-02-18 18:09:07 20.9 22 21.9
003C5573 2019-02-18 17:38:54 20.8 22 21.9
003C5573 2019-02-18 17:08:40 20.9 22 22.1
003C5573 2019-02-18 16:38:25 20.9 22 22.3
003C5573 2019-02-18 16:08:11 20.9 21 22.4
003C5573 2019-02-18 15:37:57 21 21 22.5
003C5573 2019-02-18 15:07:42 21 21 21.6
003C5573 2019-02-18 14:37:27 21 21 21.8
003C5573 2019-02-18 14:07:13 21.1 21 22
003C5573 2019-02-18 13:36:59 21.1 20 22.2
003C5573 2019-02-18 13:06:46 21.2 20 22.3
003C5573 2019-02-18 12:36:31 21.3 20 22.5
003C5573 2019-02-18 12:06:16 21.3 20 22.5
003C5573 2019-02-18 11:36:00 21.3 20 22.5
003C5573 2019-02-18 11:05:46 21.2 19 22.5
003C5573 2019-02-18 10:35:32 21.2 19 22.5
003C5573 2019-02-18 10:05:18 21.1 19 22.6
003C5573 2019-02-18 09:35:02 21.1 19 22.7
003C5573 2019-02-18 09:04:49 21.1 19 22.9
003C5573 2019-02-18 08:34:31 21 19 22.7
003C5573 2019-02-18 08:04:17 21 19 22.6
003C5573 2019-02-18 07:34:04 21 19 22.7
003C5573 2019-02-18 07:03:50 20.9 19 22.8
003C5573 2019-02-18 06:33:37 20.9 19 22.9
003C5573 2019-02-18 06:03:23 21 19 22.8
003C5573 2019-02-18 05:33:10 20.9 19 22.6
003C5573 2019-02-18 05:02:57 21 19 22.6
003C5573 2019-02-18 04:32:43 21 19 22.6
003C5573 2019-02-18 04:02:30 21 19 22.6
003C5573 2019-02-18 03:32:17 21 19 23.3
003C5573 2019-02-18 03:02:02 21 19 23.2
003C5573 2019-02-18 02:31:48 21 19 23.2
003C5573 2019-02-18 02:01:35 21 19 23.2
003C5573 2019-02-18 01:31:21 21 20 23.2
003C5573 2019-02-18 01:01:07 21 20 23.2
003C5573 2019-02-18 00:30:52 21 20 23.3
003C5573 2019-02-18 00:00:37 21 20 23.2
003C5573 2019-02-17 23:30:23 21 20 23.2
003C5573 2019-02-17 23:00:08 21 20 23.2
003C5573 2019-02-17 22:29:54 21 20 23.2
003C5573 2019-02-17 21:59:40 21 20 23.3
003C5573 2019-02-17 21:29:25 21 20 23.1
003C5573 2019-02-17 20:59:11 21 20 23.2
003C5573 2019-02-17 20:28:56 21.3 20 23.1
003C5573 2019-02-17 20:27:45 21 20 23.3
003C5573 2019-02-17 19:57:30 21 20 23.4
003C5573 2019-02-17 19:27:16 21.1 20 24
003C5573 2019-02-17 18:57:01 21.1 21 23.9
003C5573 2019-02-17 18:26:46 21.1 20 23.9
003C5573 2019-02-17 17:56:29 21.1 21 24
003C5573 2019-02-17 17:26:14 21.1 21 24.1
003C5573 2019-02-17 16:55:58 21.1 21 24.1
003C5573 2019-02-17 16:25:43 21.1 21 24.1
003C5573 2019-02-17 15:55:29 21.1 21 24.1
003C5573 2019-02-17 15:25:14 21.1 21 23.5
003C5573 2019-02-17 14:54:59 21.1 21 23.6
003C5573 2019-02-17 14:24:45 21.1 21 23.7
003C5573 2019-02-17 13:54:30 21.2 21 23.5
003C5573 2019-02-17 13:24:15 21.2 21 23.5
003C5573 2019-02-17 12:54:00 21.1 21 23.5
003C5573 2019-02-17 12:23:43 21.1 22 23.5
003C5573 2019-02-17 11:53:29 21.1 21 23.6
003C5573 2019-02-17 11:23:15 21.1 22 23.7
003C5573 2019-02-17 10:53:00 21.1 22 23.7
003C5573 2019-02-17 10:22:46 21 22 23.7
003C5573 2019-02-17 09:52:31 21.1 22 23.8
003C5573 2019-02-17 09:22:17 21.1 22 23.8
003C5573 2019-02-17 08:52:02 21.1 22 23.8
003C5573 2019-02-17 08:21:47 21.1 22 23.8
003C5573 2019-02-17 07:51:32 21.1 22 23.8
003C5573 2019-02-17 07:21:15 21.1 22 24.3
003C5573 2019-02-17 06:51:00 21.1 23 23.8
003C5573 2019-02-17 06:20:46 21.1 23 23.8
003C5573 2019-02-17 05:50:30 21.1 23 23.7
003C5573 2019-02-17 05:20:17 21.1 23 23.7
003C5573 2019-02-17 04:50:01 21.1 23 23.8
003C5573 2019-02-17 04:19:46 21.1 23 23.7
003C5573 2019-02-17 03:49:31 21.1 24 23.6
003C5573 2019-02-17 03:19:18 21.1 24 23.6
003C5573 2019-02-17 02:49:04 21.1 24 23.7
003C5573 2019-02-17 02:18:50 21.1 24 23.6
003C5573 2019-02-17 01:48:35 21.2 24 23.5
003C5573 2019-02-17 01:18:22 21.1 24 23.7
003C5573 2019-02-17 00:48:08 21.1 24 23.9
003C5573 2019-02-17 00:17:53 21.2 24 23.9
003C5573 2019-02-16 23:47:38 21.1 25 23.8
003C5573 2019-02-16 23:17:24 21.2 25 23.7
003C5573 2019-02-16 22:47:10 21.2 25 23.6
003C5573 2019-02-16 22:16:55 21.2 25 23.5
003C5573 2019-02-16 21:46:41 21.2 25 23.5
003C5573 2019-02-16 21:16:26 21.2 25 23.5
003C5573 2019-02-16 20:46:11 21.2 25 23.6
003C5573 2019-02-16 20:15:57 21.2 25 23.6
003C5573 2019-02-16 19:45:41 21.4 25 23.6
003C5573 2019-02-16 19:44:31 21.2 25 23.4
003C5573 2019-02-16 19:14:16 21.2 25 22.7
003C5573 2019-02-16 18:44:03 21.2 25 22.7
003C5573 2019-02-16 18:13:47 21.3 25 22.8
003C5573 2019-02-16 17:43:33 21.3 25 22.9
003C5573 2019-02-16 17:13:21 21.3 25 22.8
003C5573 2019-02-16 16:43:06 21.3 25 22.7
003C5573 2019-02-16 16:12:53 21.4 25 22.8
003C5573 2019-02-16 15:42:39 21.4 25 22.8
003C5573 2019-02-16 15:12:26 21.4 25 22.8
003C5573 2019-02-16 14:42:12 21.4 25 22.9
003C5573 2019-02-16 14:11:57 21.3 25 22.9
003C5573 2019-02-16 13:41:43 21.3 25 22.9
003C5573 2019-02-16 13:11:28 21.3 25 22.8
003C5573 2019-02-16 12:41:14 21.3 25 22.7
003C5573 2019-02-16 12:11:01 21.2 25 22.7
003C5573 2019-02-16 11:40:46 21.2 25 22.9
003C5573 2019-02-16 11:10:33 21.2 25 23
003C5573 2019-02-16 10:40:19 21.2 25 23.1
003C5573 2019-02-16 10:10:07 21.2 25 23.2
003C5573 2019-02-16 09:39:49 21.1 25 23.2
003C5573 2019-02-16 09:09:35 21.2 25 23.3
003C5573 2019-02-16 08:39:20 21.2 25 23.2
003C5573 2019-02-16 08:09:06 21.2 25 23.1
003C5573 2019-02-16 07:38:51 21.2 25 23
003C5573 2019-02-16 07:08:37 21.2 25 23.7
003C5573 2019-02-16 06:38:23 21.2 25 23.7
003C5573 2019-02-16 06:08:06 21.2 25 23.7
003C5573 2019-02-16 05:37:52 21.2 25 23.8
003C5573 2019-02-16 05:07:39 21.2 25 23.7
003C5573 2019-02-16 04:37:26 21.2 25 23.7
003C5573 2019-02-16 04:07:10 21.2 25 23.6
003C5573 2019-02-16 03:36:56 21.3 25 24.2
003C5573 2019-02-16 03:06:43 21.3 25 24.1
003C5573 2019-02-16 02:36:27 21.3 25 24
003C5573 2019-02-16 02:06:12 21.3 25 24
003C5573 2019-02-16 01:35:59 21.3 25 23.9
003C5573 2019-02-16 01:05:43 21.3 25 24.5
003C5573 2019-02-16 00:35:29 21.3 25 24.4
003C5573 2019-02-16 00:05:15 21.4 25 24.4
003C5573 2019-02-15 23:35:00 21.3 25 24.2
003C5573 2019-02-15 23:04:46 21.4 25 24.7
003C5573 2019-02-15 22:34:31 21.4 25 24.6
003C5573 2019-02-15 22:04:17 21.5 25 24.6
003C5573 2019-02-15 21:34:03 21.5 25 24.5
003C5573 2019-02-15 21:03:48 21.5 25 24.5
003C5573 2019-02-15 20:33:33 21.5 25 24.3
003C5573 2019-02-15 20:03:18 21.5 25 24.3
003C5573 2019-02-15 19:33:03 21.6 25 24.3
003C5573 2019-02-15 19:02:48 21.9 25 24.3
003C5573 2019-02-15 19:01:37 21.6 25 23.7
003C5573 2019-02-15 18:31:20 21.7 25 23.8
003C5573 2019-02-15 18:01:02 21.7 25 23.7
003C5573 2019-02-15 17:30:46 21.7 25 23.6
003C5573 2019-02-15 17:00:31 21.7 25 23.7
003C5573 2019-02-15 16:30:14 21.7 25 23.7
003C5573 2019-02-15 15:59:59 21.6 24 23.8
003C5573 2019-02-15 15:29:44 21.7 24 23.2
003C5573 2019-02-15 14:59:28 21.6 24 23.3
003C5573 2019-02-15 14:29:12 21.7 24 23.4
003C5573 2019-02-15 13:58:57 21.6 24 23.3
003C5573 2019-02-15 13:28:43 21.6 24 23.4
003C5573 2019-02-15 12:58:27 21.6 24 22.6
003C5573 2019-02-15 12:28:12 21.5 24 22.8
003C5573 2019-02-15 11:57:57 21.5 25 22.9
003C5573 2019-02-15 11:27:44 21.5 25 23
003C5573 2019-02-15 10:57:29 21.5 25 22.2
003C5573 2019-02-15 10:27:14 21.4 25 22.3
003C5573 2019-02-15 09:56:59 21.4 25 22.1
003C5573 2019-02-15 09:26:44 21.4 25 22
003C5573 2019-02-15 08:56:30 21.3 25 22.1
003C5573 2019-02-15 08:26:16 21.3 25 22.1
003C5573 2019-02-15 07:56:01 21.3 25 22.2
003C5573 2019-02-15 07:25:48 21.3 25 22.2
003C5573 2019-02-15 06:55:33 21.3 25 22.1
003C5573 2019-02-15 06:25:18 21.3 25 22.1
003C5573 2019-02-15 05:55:03 21.3 25 22.1
003C5573 2019-02-15 05:24:47 21.3 25 22.2
003C5573 2019-02-15 04:54:31 21.3 25 22.2
003C5573 2019-02-15 04:24:15 21.3 25 22
003C5573 2019-02-15 03:53:59 21.3 26 21.9
003C5573 2019-02-15 03:23:44 21.4 26 21.7
003C5573 2019-02-15 02:53:28 21.3 25 21.5
003C5573 2019-02-15 02:23:11 21.4 26 21.5
003C5573 2019-02-15 01:52:55 21.4 25 21.4
003C5573 2019-02-15 01:22:39 21.4 25 21.2
003C5573 2019-02-15 00:52:25 21.4 25 21.1
003C5573 2019-02-15 00:22:09 21.4 25 20.9
003C5573 2019-02-14 23:51:54 21.4 25 20.7
003C5573 2019-02-14 23:21:38 21.4 25 20.4
003C5573 2019-02-14 22:51:22 21.4 25 20.3
003C5573 2019-02-14 22:21:07 21.4 25 20
003C5573 2019-02-14 21:50:51 21.5 25 19.9
003C5573 2019-02-14 21:20:35 21.5 25 19.9
003C5573 2019-02-14 20:50:20 21.6 25 19.9
003C5573 2019-02-14 20:20:05 21.6 24 19.6
003C5573 2019-02-14 19:49:50 21.6 24 19.4
003C5573 2019-02-14 19:19:34 21.7 24 19.2
003C5573 2019-02-14 18:49:17 21.7 24 18.9
003C5573 2019-02-14 18:19:03 22 24 18.7
003C5573 2019-02-14 18:17:52 21.8 24 18.6
003C5573 2019-02-14 17:47:37 21.8 24 18
003C5573 2019-02-14 17:17:23 21.8 24 17.3
003C5573 2019-02-14 16:47:08 21.9 24 17.1
003C5573 2019-02-14 16:16:54 21.8 26 17.1
003C5573 2019-02-14 15:46:40 21.8 24 17.2
003C5573 2019-02-14 15:16:25 21.7 24 17.1
003C5573 2019-02-14 14:46:10 21.6 24 17.2
003C5573 2019-02-14 14:16:00 21.4 24 16.7
003C5573 2019-02-14 13:45:42 21.4 24 16.1
003C5573 2019-02-14 13:15:22 21.3 24 16.1
003C5573 2019-02-14 12:45:11 21.2 24 16.1
003C5573 2019-02-14 12:14:53 21.1 24 16.2
003C5573 2019-02-14 11:44:39 21.1 24 16
003C5573 2019-02-14 11:14:25 21 25 16.3
003C5573 2019-02-14 10:44:10 20.9 25 16.3
003C5573 2019-02-14 10:13:58 20.9 24 16.3
003C5573 2019-02-14 09:43:41 20.8 24 16.1
003C5573 2019-02-14 09:13:26 20.7 25 15.8
003C5573 2019-02-14 08:43:10 20.7 25 15.9
003C5573 2019-02-14 08:12:56 20.7 25 16.3
003C5573 2019-02-14 07:42:37 20.7 25 16.3
003C5573 2019-02-14 07:12:22 20.7 26 19.1
003C5573 2019-02-14 06:42:07 20.7 26 19.1
003C5573 2019-02-14 06:11:52 20.7 26 19.1
003C5573 2019-02-14 05:41:38 20.8 26 19.1
003C5573 2019-02-14 05:11:24 20.8 26 19.1
003C5573 2019-02-14 04:41:10 20.7 26 19.1
003C5573 2019-02-14 04:10:54 20.7 25 19.1
003C5573 2019-02-14 03:40:38 20.7 25 19.1
003C5573 2019-02-14 03:10:25 20.8 25 19
003C5573 2019-02-14 02:40:12 20.8 25 19
003C5573 2019-02-14 02:10:00 20.8 25 19
003C5573 2019-02-14 01:39:46 20.8 25 19.2
003C5573 2019-02-14 01:09:32 20.7 25 19.4
003C5573 2019-02-14 00:39:18 20.8 25 19.4
003C5573 2019-02-14 00:09:03 20.8 25 19.3
003C5573 2019-02-13 23:38:51 20.8 25 19.2
003C5573 2019-02-13 23:08:38 20.9 25 19.3
003C5573 2019-02-13 22:38:23 20.9 25 19.2
003C5573 2019-02-13 22:08:11 20.9 25 19.1
003C5573 2019-02-13 21:37:57 21 25 19.1
003C5573 2019-02-13 21:07:45 21 25 19
003C5573 2019-02-13 20:37:30 21.1 25 19
003C5573 2019-02-13 20:07:18 21.1 25 18.9
003C5573 2019-02-13 19:36:59 21.2 26 18.7
003C5573 2019-02-13 19:06:44 21.3 26 18.7
003C5573 2019-02-13 18:36:30 21.3 26 15.4
003C5573 2019-02-13 18:06:21 21.3 26 15.4
003C5573 2019-02-13 17:36:07 21.5 26 15.3
003C5573 2019-02-13 17:34:53 21.3 26 15.4
003C5573 2019-02-13 17:04:38 21.3 26 15.1
003C5573 2019-02-13 16:34:25 21.2 26 15.2
003C5573 2019-02-13 16:04:09 21.1 26 14.9
003C5573 2019-02-13 15:33:55 21.1 25 14.9
003C5573 2019-02-13 15:03:40 21.1 25 15
003C5573 2019-02-13 14:33:25 21.1 25 15
003C5573 2019-02-13 14:03:10 21 24 15
003C5573 2019-02-13 13:32:56 21.1 24 14.6
003C5573 2019-02-13 13:02:41 21 25 13.9
003C5573 2019-02-13 12:32:31 21 24 14
003C5573 2019-02-13 12:02:14 21 24 14.1
003C5573 2019-02-13 11:31:57 20.9 24 14
003C5573 2019-02-13 11:01:42 20.9 24 13.4
003C5573 2019-02-13 10:31:25 20.8 24 13.4
003C5573 2019-02-13 10:01:10 20.8 23 13.5
003C5573 2019-02-13 09:30:53 20.7 22 13.4
003C5573 2019-02-13 09:00:36 20.7 22 13.7
003C5573 2019-02-13 08:30:18 20.7 21 13.7
003C5573 2019-02-13 08:00:04 20.7 20 14.3
003C5573 2019-02-13 07:29:45 20.7 20 14.4
003C5573 2019-02-13 06:59:27 20.7 20 18.2
003C5573 2019-02-13 06:29:12 20.7 20 18.3
003C5573 2019-02-13 05:58:56 20.7 20 18.3
003C5573 2019-02-13 05:28:42 20.7 20 18.3
003C5573 2019-02-13 04:58:29 20.7 20 18.3
003C5573 2019-02-13 04:28:16 20.7 20 18.3
003C5573 2019-02-13 03:57:58 20.7 20 18.3
003C5573 2019-02-13 03:27:45 20.7 19 18.3
003C5573 2019-02-13 02:57:25 20.7 20 18.4
003C5573 2019-02-13 01:56:53 20.8 19 18.4
003C5573 2019-02-13 01:26:37 20.8 19 18.3
003C5573 2019-02-13 00:56:23 20.8 20 18.3
003C5573 2019-02-13 00:26:06 20.8 20 18.3
003C5573 2019-02-12 23:55:48 20.8 20 20.3
003C5573 2019-02-12 23:25:32 20.9 20 20.3
003C5573 2019-02-12 22:55:16 20.9 20 20.4
003C5573 2019-02-12 22:25:00 20.9 20 20.4
003C5573 2019-02-12 21:54:45 21 20 20.4
003C5573 2019-02-12 21:24:30 21.1 21 20.4
003C5573 2019-02-12 20:54:15 21.2 21 20.5
003C5573 2019-02-12 20:24:01 21.3 21 20.5
003C5573 2019-02-12 19:53:47 21.4 21 20.5
003C5573 2019-02-12 19:23:30 21.4 21 20.5
003C5573 2019-02-12 18:53:14 21.4 20 20.5
003C5573 2019-02-12 18:22:59 21.5 20 20.5
003C5573 2019-02-12 17:52:44 21.6 20 18.7
003C5573 2019-02-12 17:22:28 21.7 20 18.7
003C5573 2019-02-12 16:52:14 22.1 19 18.8
003C5573 2019-02-12 16:51:02 21.9 20 18.9
003C5573 2019-02-12 16:20:49 22 20 19.1
003C5573 2019-02-12 15:50:33 22.1 20 19.1
003C5573 2019-02-12 15:20:14 22.1 20 19.3
003C5573 2019-02-12 14:49:59 21.9 20 19.4
003C5573 2019-02-12 14:19:43 21.4 21 19.4
003C5573 2019-02-12 13:49:26 21.2 21 19.6
003C5573 2019-02-12 13:19:09 21.2 21 19.6
003C5573 2019-02-12 12:48:54 21.2 21 19.7
003C5573 2019-02-12 12:18:38 21.2 21 19.7
003C5573 2019-02-12 11:48:21 21.2 22 17.9
003C5573 2019-02-12 11:18:03 21.1 22 17.9
003C5573 2019-02-12 10:47:47 21.1 23 18.2
003C5573 2019-02-12 10:17:29 21 23 18.5
003C5573 2019-02-12 09:47:11 20.9 24 18.5
003C5573 2019-02-12 09:16:55 20.8 24 18.9
003C5573 2019-02-12 08:46:39 20.7 24 19
003C5573 2019-02-12 08:16:22 20.7 25 19
003C5573 2019-02-12 07:46:06 20.7 26 19.1
003C5573 2019-02-12 07:15:49 20.7 26 19.2
003C5573 2019-02-12 06:45:31 20.7 26 19.4
003C5573 2019-02-12 06:15:15 20.8 27 19.4
003C5573 2019-02-12 05:44:59 20.8 27 19.3
003C5573 2019-02-12 05:14:43 20.8 27 19.3
003C5573 2019-02-12 04:44:26 20.8 27 19.3
003C5573 2019-02-12 04:14:10 20.8 27 19.3
003C5573 2019-02-12 03:43:52 20.8 27 19.3
003C5573 2019-02-12 03:13:36 20.8 27 19.4
003C5573 2019-02-12 02:43:18 20.8 27 19.4
003C5573 2019-02-12 02:13:01 20.8 27 19.4
003C5573 2019-02-12 01:42:44 20.8 27 19.5
003C5573 2019-02-12 01:12:28 20.9 27 19.4
003C5573 2019-02-12 00:42:10 20.9 27 19.5
003C5573 2019-02-12 00:11:53 20.9 27 19.6
003C5573 2019-02-11 23:41:37 20.9 27 19.8
003C5573 2019-02-11 23:11:19 20.9 27 19.4
003C5573 2019-02-11 22:41:02 21 27 19.6
003C5573 2019-02-11 22:10:44 21 27 19.3
003C5573 2019-02-11 21:40:27 21.1 28 19.1
003C5573 2019-02-11 21:10:10 21.2 28 19.3
003C5573 2019-02-11 20:39:54 21.3 28 18.7
003C5573 2019-02-11 20:09:37 21.3 28 18.4
003C5573 2019-02-11 19:39:21 21.4 28 18.6
003C5573 2019-02-11 19:09:05 21.5 28 18
003C5573 2019-02-11 18:38:49 21.6 28 18
003C5573 2019-02-11 18:08:33 21.7 28 16
003C5573 2019-02-11 17:38:16 21.8 28 15.3
003C5573 2019-02-11 17:07:58 21.9 28 14.8
003C5573 2019-02-11 16:37:40 22 29 16.6
003C5573 2019-02-11 16:07:24 22 32 0